User: anonymous   Login
Location: Oshawa
(43.9000°N, 78.8670°W)
Time: 19:16:03
(UTC-05:00)
Language:

Explorer 11/Cluster Stage 4 - Orbit

View from above orbital plane
View from above orbital plane
View from above satellite
View from above satellite

Ground track
Ground track

The orbit data is extracted from the following two-line orbital elements,

1 00107U 61013A   15026.64886584  .00001626  00000-0  20637-3 0  2294
2 00107 028.7882 127.3867 0558204 111.1630 024.6763 14.06101720688031
Epoch (UTC): 26 January 2015 15:34:22
Eccentricity: 0.0558204
inclination: 28.7882°
perigee height: 468 km
apogee height: 1277 km
right ascension of ascending node: 127.3867°
argument of perigee: 111.1630°
revolutions per day: 14.06101720
mean anomaly at epoch: 24.6763°
orbit number at epoch: 68803

The dashed part of the orbit path shows where the satellite is in the earth's shadow,  

DLR